Location: Bittelbronn
(48.4454°N, 8.5870°E)
Time: 13:35:49
(UTC+00:00)

SJ 16-02 - Pass Details

Date: 28 April 2025
Orbit: 587 x 597 km, 75.0° (Epoch: 15 May)

Event Time Altitude Azimuth Distance (km) Brightness Sun altitude
Rises 19:27:32 0° 328° (NNW) 2,851 6.1 -8.4°
Reaches altitude 10° 19:30:03 10° 316° (NW) 1,944 5.5 -8.7°
Maximum altitude 19:33:37 25° 260° (W) 1,209 3.4 -9.2°
Drops below altitude 10° 19:37:10 10° 205° (SSW) 1,932 3.8 -9.7°
Sets 19:39:39 0° 192° (SSW) 2,828 4.5 -10.0°
